Погода в Петриле

Румыния     45°26′59″N   23°23′30″E
темп.,
°C
ветер,
м/с
пор.,
м/с
влажн.,
%
обл.,
%
осадки,
мм/ч
давл.,
гПа
погр.,
м
21 апреля, ср
ср2100:00−4всв119827 0.0 101814
03:00−4св219845 0.0 101915
06:00−1ссв019974 0.1 101738
09:00+2сз129252 0.2 1017434
12:00+4зсз228297 0.6 10161053
15:00+5зсз228187 1.4 1016966
18:00+5зсз228047 0.4 1016938
21:00−2св11965 0.5 102111
22 апреля, чт
чт2200:00−3всв21961 0.0 102214
03:00−3всв21932 0.0 102313
06:00−3всв22945 0.0 102316
09:00+4сз11815 0.0 1020379
12:00+8з226364 0.1 10181528
15:00+8зюз337086 0.6 10181222
18:00+7з1277100 2.2 1017555
21:00+1в1194100 2.6 102112
23 апреля, пт
пт2300:000в2195100 0.0 102114
03:00−1всв22946 0.1 102015
06:00−1св119630 0.0 102012
09:00+3зсз2398100 0.1 1019306
12:00+2зсз358077 0.1 1021914
15:00+5сз585371 0.1 10201701
18:00+3сз585777 0.0 10201434
21:00−1ссз248893 0.1 1024171
24 апреля, сб
сб2400:00−1сз149195 0.1 1025367
03:00−4св119387 0.3 102617
06:00−1сз227693 0.0 1024132
09:00+1зсз236480 0.1 10241023
12:00+5з23474 0.0 10221287
15:00+7зсз33434 0.0 10201413
18:00+6зсз22464 0.0 10201194
21:00−1ссв22824 0.0 102413
25 апреля, вс
вс2500:00−3св11894 0.0 102512
03:00−3ссв11914 0.0 102512
06:00−3ссв11893 0.0 102514
09:00+3зсз23605 0.0 1023769
12:00+6зсз465050 0.0 10211694
15:00+6сз475989 0.1 10211667
18:00+3сз476582 0.2 10221393
21:00−2с228955 0.3 102520